IRIDIUM 58 [-]

Last updated on April 8, 2019, 3:10 a.m. UTC

1 25274U 98019C   19097.22181625  .18525790 -19740-5  34539-3 0  9991
2 25274  86.6972  11.1474 0062978 117.9521  41.2847 16.38679068100962

Satellite is not in orbit.